FW2547 Weather Reports


Display with metric or nautical units.
time (UTC)temp
F
wind
direction
speed
MPH
gust
MPH
rain 1hr
in
rain 24hr
in
rain mn
in
humidity
%
barometer
mb
20260507183042 73 129 9.0 13.0 0.00 0.00 0.00 23 1012.2
20260507181535 73 137 3.0 14.0 0.00 0.00 0.00 25 1012.4
20260507180031 71 74 7.0 11.0 0.00 0.00 0.00 27 1012.6
20260507174539 70 86 6.0 12.0 0.00 0.00 0.00 28 1012.6
20260507173027 69 82 3.0 14.0 0.00 0.00 0.00 28 1012.9
20260507171520 69 52 5.0 17.0 0.00 0.00 0.00 29 1013.1
20260507170023 68 82 10.0 15.0 0.00 0.00 0.00 30 1013.4
20260507164511 67 65 10.0 14.0 0.00 0.00 0.00 31 1013.6
20260507163007 67 136 5.0 15.0 0.00 0.00 0.00 33 1013.7
20260507161504 65 61 8.0 17.0 0.00 0.00 0.00 34 1013.9
20260507160059 65 53 12.0 18.0 0.00 0.00 0.00 35 1014.1
20260507154654 64 76 10.0 17.0 0.00 0.00 0.00 35 1014.2
20260507153058 63 71 11.0 16.0 0.00 0.00 0.00 35 1014.2
20260507151545 63 57 10.0 16.0 0.00 0.00 0.00 37 1014.3
20260507150043 62 51 12.0 16.0 0.00 0.00 0.00 38 1014.4
20260507144536 61 74 11.0 17.0 0.00 0.00 0.00 39 1014.4
20260507143035 61 74 15.0 18.0 0.00 0.00 0.00 38 1014.6
20260507141528 60 65 12.0 18.0 0.00 0.00 0.00 39 1014.6
20260507140022 60 74 14.0 19.0 0.00 0.00 0.00 39 1014.5
20260507134519 60 71 13.0 17.0 0.00 0.00 0.00 38 1014.6
20260507133014 59 64 10.0 16.0 0.00 0.00 0.00 40 1014.4
20260507131513 58 46 14.0 19.0 0.00 0.00 0.00 41 1014.2
20260507130111 58 71 8.0 14.0 0.00 0.00 0.00 41 1014.2
20260507124605 57 64 10.0 15.0 0.00 0.00 0.00 41 1014.0
20260507123058 57 123 8.0 11.0 0.00 0.00 0.00 34 1013.7
20260507121605 56 156 3.0 7.0 0.00 0.00 0.00 30 1013.4
20260507120050 57 128 4.0 10.0 0.00 0.00 0.00 27 1013.3
20260507114601 58 78 7.0 12.0 0.00 0.00 0.00 25 1013.1
20260507113045 58 51 7.0 13.0 0.00 0.00 0.00 25 1013.0
20260507111542 60 40 12.0 19.0 0.00 0.00 0.00 25 1013.0
20260507110041 60 231 0.0 3.0 0.00 0.00 0.00 27 1012.5
20260507104539 60 173 2.0 5.0 0.00 0.00 0.00 27 1012.4
20260507103037 61 103 1.0 7.0 0.00 0.00 0.00 28 1012.5
20260507101538 60 60 2.0 6.0 0.00 0.00 0.00 28 1012.5
20260507100039 60 67 6.0 10.0 0.00 0.00 0.00 29 1012.7
20260507094537 60 66 4.0 5.0 0.00 0.00 0.00 29 1012.5
20260507093029 61 132 2.0 4.0 0.00 0.00 0.00 27 1012.5
20260507091525 62 132 1.0 3.0 0.00 0.00 0.00 25 1012.3
20260507090023 63 132 1.0 4.0 0.00 0.00 0.00 22 1012.4
20260507084519 63 132 1.0 4.0 0.00 0.00 0.00 21 1012.5
20260507083018 64 269 1.0 4.0 0.00 0.00 0.00 19 1012.5
20260507081533 64 250 0.0 2.0 0.00 0.00 0.00 19 1012.7
20260507080013 64 251 2.0 5.0 0.00 0.00 0.00 18 1012.8
20260507074522 65 270 4.0 6.0 0.00 0.00 0.00 18 1012.7
20260507073008 66 292 7.0 9.0 0.00 0.00 0.00 17 1012.6
20260507071507 66 286 3.0 5.0 0.00 0.00 0.00 18 1012.6
20260507070010 66 267 4.0 7.0 0.00 0.00 0.00 17 1012.5
20260507064501 67 290 2.0 5.0 0.00 0.00 0.00 18 1012.4
20260507063059 67 290 3.0 5.0 0.00 0.00 0.00 18 1012.4
20260507061601 68 290 4.0 8.0 0.00 0.00 0.00 18 1012.2
20260507060058 67 275 4.0 7.0 0.00 0.00 0.00 19 1012.1
20260507054636 68 262 2.0 6.0 0.00 0.00 0.00 19 1011.9
20260507053054 68 300 4.0 7.0 0.00 0.00 0.00 20 1011.6
20260507051552 69 292 4.0 5.0 0.00 0.00 0.00 20 1011.8
20260507050056 69 269 2.0 6.0 0.00 0.00 0.00 19 1011.8
20260507044556 69 300 2.0 4.0 0.00 0.00 0.00 20 1011.8
20260507043050 71 313 1.0 3.0 0.00 0.00 0.00 19 1011.7
20260507041559 72 313 2.0 6.0 0.00 0.00 0.00 18 1011.4
20260507040048 72 331 3.0 5.0 0.00 0.00 0.00 16 1011.2
20260507034556 73 330 3.0 9.0 0.00 0.00 0.00 17 1011.2
20260507033053 73 323 5.0 9.0 0.00 0.00 0.00 16 1011.0
20260507031602 74 336 3.0 6.0 0.00 0.00 0.00 16 1010.9
20260507030053 74 344 3.0 8.0 0.00 0.00 0.00 16 1010.7
20260507024546 74 338 3.0 9.0 0.00 0.00 0.00 16 1010.3
20260507023046 75 328 3.0 9.0 0.00 0.00 0.00 16 1010.1
20260507021544 75 310 7.0 11.0 0.00 0.00 0.00 16 1010.0
20260507020047 75 298 7.0 15.0 0.00 0.00 0.00 16 1009.7
20260507014550 76 301 12.0 17.0 0.00 0.00 0.00 16 1009.5
20260507013045 76 303 9.0 12.0 0.00 0.00 0.00 16 1009.4
20260507011543 76 320 8.0 16.0 0.00 0.00 0.00 16 1009.3
20260507010043 77 303 10.0 18.0 0.00 0.00 0.00 16 1009.0
20260507004539 77 331 12.0 17.0 0.00 0.00 0.00 16 1008.8
20260507003043 77 319 13.0 21.0 0.00 0.00 0.00 16 1008.7
20260507001541 77 306 14.0 22.0 0.00 0.00 0.00 16 1008.6
20260507000041 78 277 13.0 16.0 0.00 0.00 0.00 16 1008.6
20260506234537 77 334 9.0 19.0 0.00 0.00 0.00 16 1008.3
20260506233041 77 330 11.0 24.0 0.00 0.00 0.00 16 1008.3
20260506231535 77 304 12.0 26.0 0.00 0.00 0.00 16 1008.5
20260506230032 78 305 9.0 24.0 0.00 0.00 0.00 16 1008.5
20260506224531 77 321 8.0 21.0 0.00 0.00 0.00 16 1008.7
20260506223029 77 279 18.0 26.0 0.00 0.00 0.00 16 1008.8
20260506221526 76 304 16.0 23.0 0.00 0.00 0.00 16 1008.9
20260506220024 76 311 13.0 29.0 0.00 0.00 0.00 17 1008.9
20260506214522 76 309 13.0 24.0 0.00 0.00 0.00 17 1008.9
20260506213020 76 302 14.0 23.0 0.00 0.00 0.00 17 1009.2
20260506211518 76 300 18.0 29.0 0.00 0.00 0.00 17 1009.3
20260506210017 75 279 19.0 28.0 0.00 0.00 0.00 17 1009.5
20260506204520 74 309 13.0 26.0 0.00 0.00 0.00 19 1009.7
20260506203017 75 251 10.0 26.0 0.00 0.00 0.00 19 1009.8
20260506201517 74 282 17.0 29.0 0.00 0.00 0.00 19 1010.0
20260506200012 74 267 19.0 25.0 0.00 0.00 0.00 19 1010.2
20260506194516 73 309 17.0 26.0 0.00 0.00 0.00 21 1010.3
20260506193009 72 295 12.0 22.0 0.00 0.00 0.00 21 1010.5
20260506191508 72 263 15.0 25.0 0.00 0.00 0.00 21 1010.6
20260506190006 72 301 10.0 25.0 0.00 0.00 0.00 22 1010.9
20260506184504 71 270 14.0 33.0 0.00 0.00 0.00 23 1011.1